Regional Weather Roundup
Issued by NWS

Home | Current Version | Previous Version | Text Only | Print | Product List | Glossary Off
Versions: 1 2 3 4 5 6 7 8 9 10 11 12 13 14 15 16 17 18 19 20 21 22 23 24 25 26 27 28 29 30 31 32 33 34 35 36 37 38 39 40 41 42 43 44 45 46 47 48 49 50

000
ASUS43 KFSD 271010
RWRSD

WEATHER ROUNDUP FOR SOUTH DAKOTA
NATIONAL WEATHER SERVICE SIOUX FALLS SD
500 AM CDT FRI MAR 27 2015

NOTE: "FAIR" INDICATES FEW OR NO CLOUDS BELOW 12,000 FEET WITH NO
SIGNIFICANT WEATHER AND/OR OBSTRUCTIONS TO VISIBILITY.


SDZ001>005-009-010-012>017-271100-
NORTHWEST AND NORTH CENTRAL SOUTH DAKOTA

CITY           SKY/WX    TMP DP  RH WIND       PRES   REMARKS
BUFFALO          N/A     33  30  88 S9        29.99F WCI  25
FAITH            N/A     32  26  78 S14       30.12F WCI  22
MOBRIDGE       CLOUDY    26  14  60 S16       30.19F WCI  14
$$

SDZ012>016-024>037-041>051-057-063-072>074-271100-
SOUTHWEST AND SOUTH CENTRAL SOUTH DAKOTA

CITY           SKY/WX    TMP DP  RH WIND       PRES   REMARKS
RAPID CTY ARPT CLOUDY    33  28  81 SE7       30.08F WCI  27
PIERRE         CLOUDY    26  18  71 SE9       30.22S WCI  17
CUSTER         CLOUDY    33  31  92 W7        30.05F WCI  27
ELLSWORTH AFB  CLOUDY    35  29  80 S9        30.07F WCI  27
PHILIP         CLOUDY    34  26  72 S7        30.16F WCI  28
PINE RIDGE     CLOUDY    36  32  85 S8        30.12F
SPEARFISH      CLOUDY    39  36  87 CALM      30.05F
WINNER         CLOUDY    28  20  71 SE9       30.23S WCI  19
$$

SDZ004>011-016>023-039-040-271100-
NORTHEAST SOUTH DAKOTA

CITY           SKY/WX    TMP DP  RH WIND       PRES   REMARKS
ABERDEEN       CLEAR     12   9  87 CALM      30.28S
WATERTOWN      CLEAR     15  10  80 CALM      30.24S
SISSETON         N/A     15  11  83 W3        30.27S
$$

SDZ017-020-022-023-036>040-048>070-271100-
SOUTHEAST SOUTH DAKOTA

CITY           SKY/WX    TMP DP  RH WIND       PRES   REMARKS
SIOUX FALLS    PTCLDY    15  10  80 CALM      30.25F
HURON          PTCLDY    12   8  84 CALM      30.28F
CHAMBERLAIN    CLOUDY    22  17  81 SE6       30.26S WCI  14
MITCHELL       CLEAR     15  11  83 W5        30.30S WCI   8
YANKTON        CLEAR     21  12  68 NW5       30.28F WCI  15
$$

ABBREVIATIONS USED IN REMARKS
   TC - TEMPERATURE IN CELSIUS
  WCI - WIND CHILL INDEX
   HX - HEAT INDEX
  VSB - VISIBILITY



USA.gov is the U.S. government's official web portal to all federal, state and local government web resources and services.